Time,TemperatureF,DewpointF,PressureIn,WindDirection,WindDirectionDegrees,WindSpeedMPH,WindSpeedGustMPH,Humidity,HourlyPrecipIn,Conditions,Clouds,dailyrainin,SoftwareType,DateUTC
2013-05-07 00:07:00,62.9,55.0,29.96,ENE,64,3.0,4.0,75,0.00,,,0.00,weatherlink.com 1.10,2013-05-07 04:07:00,
2013-05-07 00:39:00,61.7,54.0,29.96,East,101,2.0,7.0,77,0.00,,,0.00,weatherlink.com 1.10,2013-05-07 04:39:00,
2013-05-07 00:53:00,61.7,54.0,29.97,East,96,2.0,5.0,77,0.00,,,0.00,weatherlink.com 1.10,2013-05-07 04:53:00,
2013-05-07 01:08:00,61.6,55.0,29.97,East,95,2.0,3.0,78,0.00,,,0.00,weatherlink.com 1.10,2013-05-07 05:08:00,
2013-05-07 01:24:00,61.4,55.0,29.97,East,95,1.0,3.0,79,0.00,,,0.00,weatherlink.com 1.10,2013-05-07 05:24:00,
2013-05-07 01:38:00,61.2,55.0,29.97,East,95,1.0,3.0,81,0.00,,,0.00,weatherlink.com 1.10,2013-05-07 05:38:00,
2013-05-07 01:55:00,61.0,56.0,29.96,East,96,1.0,5.0,82,0.00,,,0.00,weatherlink.com 1.10,2013-05-07 05:55:00,
2013-05-07 02:09:00,60.9,55.0,29.96,East,96,0.0,3.0,82,0.00,,,0.00,weatherlink.com 1.10,2013-05-07 06:09:00,
2013-05-07 02:24:00,60.9,55.0,29.96,East,96,0.0,0.0,82,0.00,,,0.00,weatherlink.com 1.10,2013-05-07 06:24:00,
2013-05-07 02:40:00,60.7,56.0,29.95,East,96,0.0,0.0,83,0.00,,,0.00,weatherlink.com 1.10,2013-05-07 06:40:00,
2013-05-07 02:55:00,60.4,56.0,29.95,East,96,1.0,2.0,84,0.00,,,0.00,weatherlink.com 1.10,2013-05-07 06:55:00,
2013-05-07 03:10:00,59.9,55.0,29.95,East,96,0.0,2.0,85,0.00,,,0.00,weatherlink.com 1.10,2013-05-07 07:10:00,
2013-05-07 03:27:00,59.1,55.0,29.95,East,96,0.0,3.0,86,0.00,,,0.00,weatherlink.com 1.10,2013-05-07 07:27:00,
2013-05-07 03:42:00,58.8,55.0,29.95,East,96,0.0,3.0,87,0.00,,,0.00,weatherlink.com 1.10,2013-05-07 07:42:00,
2013-05-07 03:58:00,58.7,55.0,29.95,East,96,0.0,0.0,87,0.00,,,0.00,weatherlink.com 1.10,2013-05-07 07:58:00,
2013-05-07 04:12:00,58.4,55.0,29.96,East,93,2.0,6.0,88,0.00,,,0.00,weatherlink.com 1.10,2013-05-07 08:12:00,
2013-05-07 04:27:00,58.6,55.0,29.96,East,92,2.0,3.0,88,0.00,,,0.00,weatherlink.com 1.10,2013-05-07 08:27:00,
2013-05-07 04:42:00,58.5,55.0,29.96,East,92,1.0,2.0,88,0.00,,,0.00,weatherlink.com 1.10,2013-05-07 08:42:00,
2013-05-07 04:57:00,58.5,55.0,29.96,East,92,3.0,3.0,88,0.00,,,0.00,weatherlink.com 1.10,2013-05-07 08:57:00,
2013-05-07 05:12:00,58.2,55.0,29.97,East,92,2.0,3.0,89,0.00,,,0.00,weatherlink.com 1.10,2013-05-07 09:12:00,
2013-05-07 05:28:00,58.2,55.0,29.97,East,90,2.0,6.0,89,0.00,,,0.00,weatherlink.com 1.10,2013-05-07 09:28:00,
2013-05-07 05:43:00,58.0,55.0,29.97,East,90,0.0,1.0,88,0.00,,,0.00,weatherlink.com 1.10,2013-05-07 09:43:00,
2013-05-07 05:58:00,57.8,55.0,29.97,East,90,2.0,2.0,89,0.00,,,0.00,weatherlink.com 1.10,2013-05-07 09:58:00,
2013-05-07 06:14:00,57.7,55.0,29.97,East,90,1.0,3.0,90,0.00,,,0.00,weatherlink.com 1.10,2013-05-07 10:14:00,
2013-05-07 06:29:00,57.6,55.0,29.98,East,90,0.0,0.0,90,0.00,,,0.00,weatherlink.com 1.10,2013-05-07 10:29:00,
2013-05-07 06:44:00,57.6,55.0,29.98,East,90,0.0,2.0,90,0.00,,,0.00,weatherlink.com 1.10,2013-05-07 10:44:00,
2013-05-07 06:59:00,57.5,55.0,29.98,East,90,0.0,0.0,90,0.00,,,0.00,weatherlink.com 1.10,2013-05-07 10:59:00,
2013-05-07 07:14:00,57.7,55.0,29.99,East,90,2.0,2.0,90,0.00,,,0.00,weatherlink.com 1.10,2013-05-07 11:14:00,
2013-05-07 07:30:00,57.9,55.0,29.99,East,90,0.0,3.0,91,0.00,,,0.00,weatherlink.com 1.10,2013-05-07 11:30:00,
2013-05-07 07:45:00,58.4,56.0,29.99,East,90,0.0,2.0,90,0.00,,,0.00,weatherlink.com 1.10,2013-05-07 11:45:00,
2013-05-07 08:00:00,58.9,55.0,30.00,East,90,0.0,2.0,88,0.00,,,0.00,weatherlink.com 1.10,2013-05-07 12:00:00,
2013-05-07 08:17:00,59.7,56.0,30.00,East,90,0.0,1.0,87,0.00,,,0.00,weatherlink.com 1.10,2013-05-07 12:17:00,
2013-05-07 08:32:00,60.5,56.0,30.00,ENE,77,2.0,5.0,84,0.00,,,0.00,weatherlink.com 1.10,2013-05-07 12:32:00,
2013-05-07 08:47:00,61.3,56.0,30.00,ENE,71,3.0,4.0,83,0.00,,,0.00,weatherlink.com 1.10,2013-05-07 12:47:00,
2013-05-07 09:02:00,61.8,56.0,30.00,ENE,70,3.0,5.0,81,0.00,,,0.00,weatherlink.com 1.10,2013-05-07 13:02:00,
2013-05-07 09:17:00,62.5,57.0,30.00,ENE,63,2.0,5.0,81,0.00,,,0.00,weatherlink.com 1.10,2013-05-07 13:17:00,
2013-05-07 09:32:00,64.5,58.0,30.00,ENE,63,4.0,7.0,78,0.00,,,0.00,weatherlink.com 1.10,2013-05-07 13:32:00,
2013-05-07 09:47:00,65.9,57.0,30.00,ENE,63,5.0,7.0,74,0.00,,,0.00,weatherlink.com 1.10,2013-05-07 13:47:00,
2013-05-07 10:02:00,66.2,57.0,30.00,NNE,32,4.0,8.0,72,0.00,,,0.00,weatherlink.com 1.10,2013-05-07 14:02:00,
2013-05-07 10:17:00,66.8,58.0,30.00,NE,44,6.0,9.0,73,0.00,,,0.00,weatherlink.com 1.10,2013-05-07 14:17:00,
2013-05-07 10:33:00,67.2,57.0,30.00,NE,38,6.0,9.0,69,0.00,,,0.00,weatherlink.com 1.10,2013-05-07 14:33:00,
2013-05-07 10:50:00,68.1,58.0,29.99,ENE,57,7.0,11.0,70,0.00,,,0.00,weatherlink.com 1.10,2013-05-07 14:50:00,
2013-05-07 11:03:00,68.9,57.0,29.99,WNW,287,4.0,9.0,67,0.00,,,0.00,weatherlink.com 1.10,2013-05-07 15:03:00,
2013-05-07 11:20:00,69.8,58.0,29.99,NNE,29,9.0,13.0,67,0.00,,,0.00,weatherlink.com 1.10,2013-05-07 15:20:00,
2013-05-07 11:34:00,69.4,58.0,29.99,ENE,59,5.0,13.0,68,0.00,,,0.00,weatherlink.com 1.10,2013-05-07 15:34:00,
2013-05-07 11:49:00,70.3,59.0,30.00,North,5,8.0,10.0,67,0.00,,,0.00,weatherlink.com 1.10,2013-05-07 15:49:00,
2013-05-07 12:04:00,70.4,58.0,30.00,East,84,8.0,14.0,65,0.00,,,0.00,weatherlink.com 1.10,2013-05-07 16:04:00,
2013-05-07 12:20:00,70.6,57.0,29.99,NE,46,6.0,13.0,62,0.00,,,0.00,weatherlink.com 1.10,2013-05-07 16:20:00,
2013-05-07 12:35:00,70.3,57.0,29.99,NE,35,10.0,12.0,64,0.00,,,0.00,weatherlink.com 1.10,2013-05-07 16:35:00,
2013-05-07 12:50:00,70.5,57.0,29.99,ENE,69,3.0,12.0,63,0.00,,,0.00,weatherlink.com 1.10,2013-05-07 16:50:00,
2013-05-07 13:07:00,70.2,56.0,29.98,NE,55,7.0,14.0,62,0.00,,,0.00,weatherlink.com 1.10,2013-05-07 17:07:00,
2013-05-07 13:22:00,71.4,58.0,29.98,East,83,9.0,11.0,63,0.00,,,0.00,weatherlink.com 1.10,2013-05-07 17:22:00,
2013-05-07 13:37:00,72.4,59.0,29.97,North,360,7.0,11.0,62,0.00,,,0.00,weatherlink.com 1.10,2013-05-07 17:37:00,
2013-05-07 13:52:00,73.1,56.0,29.98,ENE,68,8.0,13.0,56,0.00,,,0.00,weatherlink.com 1.10,2013-05-07 17:52:00,
2013-05-07 14:07:00,73.3,57.0,29.97,NNE,33,5.0,12.0,57,0.00,,,0.00,weatherlink.com 1.10,2013-05-07 18:07:00,
2013-05-07 14:22:00,72.9,57.0,29.97,NNE,30,8.0,13.0,58,0.00,,,0.00,weatherlink.com 1.10,2013-05-07 18:22:00,
2013-05-07 14:37:00,73.2,57.0,29.97,ENE,61,10.0,15.0,58,0.00,,,0.00,weatherlink.com 1.10,2013-05-07 18:37:00,
2013-05-07 14:52:00,73.4,57.0,29.96,East,84,11.0,15.0,57,0.00,,,0.00,weatherlink.com 1.10,2013-05-07 18:52:00,
2013-05-07 15:09:00,73.3,57.0,29.96,ENE,67,9.0,16.0,58,0.00,,,0.00,weatherlink.com 1.10,2013-05-07 19:09:00,
2013-05-07 15:23:00,73.2,59.0,29.95,ENE,76,7.0,12.0,61,0.00,,,0.00,weatherlink.com 1.10,2013-05-07 19:23:00,
2013-05-07 15:38:00,73.5,57.0,29.95,East,84,10.0,14.0,56,0.00,,,0.00,weatherlink.com 1.10,2013-05-07 19:38:00,
2013-05-07 15:53:00,72.2,57.0,29.95,ENE,64,11.0,14.0,59,0.00,,,0.00,weatherlink.com 1.10,2013-05-07 19:53:00,
2013-05-07 16:08:00,72.6,58.0,29.95,NNE,17,5.0,13.0,60,0.00,,,0.00,weatherlink.com 1.10,2013-05-07 20:08:00,
2013-05-07 16:24:00,73.9,58.0,29.95,ENE,58,11.0,11.0,57,0.00,,,0.00,weatherlink.com 1.10,2013-05-07 20:24:00,
2013-05-07 16:39:00,74.1,57.0,29.94,ENE,73,4.0,16.0,56,0.00,,,0.00,weatherlink.com 1.10,2013-05-07 20:39:00,
2013-05-07 16:54:00,73.4,58.0,29.94,ENE,78,10.0,12.0,58,0.00,,,0.00,weatherlink.com 1.10,2013-05-07 20:54:00,
2013-05-07 17:10:00,73.5,58.0,29.94,ENE,74,5.0,14.0,59,0.00,,,0.00,weatherlink.com 1.10,2013-05-07 21:10:00,
2013-05-07 17:25:00,74.9,56.0,29.93,NE,48,4.0,9.0,53,0.00,,,0.00,weatherlink.com 1.10,2013-05-07 21:25:00,
2013-05-07 17:40:00,76.2,58.0,29.93,East,82,5.0,10.0,54,0.00,,,0.00,weatherlink.com 1.10,2013-05-07 21:40:00,
2013-05-07 17:55:00,76.8,58.0,29.93,ENE,74,7.0,10.0,53,0.00,,,0.00,weatherlink.com 1.10,2013-05-07 21:55:00,
2013-05-07 18:12:00,74.9,57.0,29.93,NE,40,1.0,9.0,54,0.00,,,0.00,weatherlink.com 1.10,2013-05-07 22:12:00,
2013-05-07 18:27:00,74.4,58.0,29.93,East,86,7.0,8.0,57,0.00,,,0.00,weatherlink.com 1.10,2013-05-07 22:27:00,
2013-05-07 18:42:00,74.7,57.0,29.93,ENE,64,5.0,11.0,55,0.00,,,0.00,weatherlink.com 1.10,2013-05-07 22:42:00,
2013-05-07 18:56:00,74.7,57.0,29.93,ENE,58,5.0,14.0,55,0.00,,,0.00,weatherlink.com 1.10,2013-05-07 22:56:00,
2013-05-07 19:12:00,74.9,57.0,29.93,NE,53,5.0,11.0,54,0.00,,,0.00,weatherlink.com 1.10,2013-05-07 23:12:00,
2013-05-07 19:27:00,74.0,57.0,29.93,ENE,73,9.0,13.0,56,0.00,,,0.00,weatherlink.com 1.10,2013-05-07 23:27:00,
2013-05-07 19:42:00,73.1,57.0,29.93,ENE,63,11.0,11.0,57,0.00,,,0.00,weatherlink.com 1.10,2013-05-07 23:42:00,
2013-05-07 19:58:00,72.9,57.0,29.93,NE,43,5.0,12.0,57,0.00,,,0.00,weatherlink.com 1.10,2013-05-07 23:58:00,
2013-05-07 20:13:00,72.1,57.0,29.94,ESE,120,7.0,15.0,60,0.00,,,0.00,weatherlink.com 1.10,2013-05-08 00:13:00,
2013-05-07 20:29:00,70.2,56.0,29.95,East,79,8.0,11.0,62,0.00,,,0.00,weatherlink.com 1.10,2013-05-08 00:29:00,
2013-05-07 20:43:00,68.3,57.0,29.95,East,92,5.0,11.0,68,0.00,,,0.00,weatherlink.com 1.10,2013-05-08 00:43:00,
2013-05-07 20:59:00,67.0,58.0,29.95,ENE,65,3.0,5.0,72,0.00,,,0.00,weatherlink.com 1.10,2013-05-08 00:59:00,
2013-05-07 21:13:00,66.7,59.0,29.96,ENE,77,1.0,4.0,75,0.00,,,0.00,weatherlink.com 1.10,2013-05-08 01:13:00,
2013-05-07 21:29:00,66.3,59.0,29.96,ENE,76,3.0,4.0,77,0.00,,,0.00,weatherlink.com 1.10,2013-05-08 01:29:00,
2013-05-07 21:44:00,65.9,58.0,29.97,ENE,75,1.0,3.0,76,0.00,,,0.00,weatherlink.com 1.10,2013-05-08 01:44:00,
2013-05-07 21:59:00,66.0,58.0,29.97,ENE,77,3.0,3.0,76,0.00,,,0.00,weatherlink.com 1.10,2013-05-08 01:59:00,
2013-05-07 22:14:00,65.7,59.0,29.97,ENE,77,0.0,2.0,78,0.00,,,0.00,weatherlink.com 1.10,2013-05-08 02:14:00,
2013-05-07 22:30:00,65.1,58.0,29.98,ENE,77,0.0,0.0,79,0.00,,,0.00,weatherlink.com 1.10,2013-05-08 02:30:00,
2013-05-07 22:45:00,64.2,58.0,29.98,ENE,77,0.0,0.0,80,0.00,,,0.00,weatherlink.com 1.10,2013-05-08 02:45:00,
2013-05-07 23:00:00,63.4,58.0,29.98,ENE,77,0.0,0.0,81,0.00,,,0.00,weatherlink.com 1.10,2013-05-08 03:00:00,
2013-05-07 23:17:00,62.7,56.0,29.98,ENE,67,2.0,6.0,80,0.00,,,0.00,weatherlink.com 1.10,2013-05-08 03:17:00,
2013-05-07 23:31:00,62.5,56.0,29.98,East,85,2.0,7.0,80,0.00,,,0.00,weatherlink.com 1.10,2013-05-08 03:31:00,
2013-05-07 23:47:00,62.4,56.0,29.98,East,94,2.0,5.0,80,0.00,,,0.00,weatherlink.com 1.10,2013-05-08 03:47:00,